Content
SEND FEEDBACK

Daily
Averages
Monthly
Summary
United States of America

ANN ARBOR, MICHIGAN


Home > North America > United States > Michigan
Elevation: 759 feet     Latitude: 42 17N     Longitude: 083 43W

WEATHER
 
SELECT A DAY
Number of Records: 206,204;   Date Range: 1/1/95 - 9/28/14
 
SHARE

PRINT THIS DATA

[ ← Previous Day ]
WEATHER ALMANAC - SEPTEMBER 21, 2013
[ Next Day → ]
[ °C ]   °F
Weather ElementAverageHighLow
Temperature62.6 °F68 °F (1:53 pm)57 °F (9:53 pm)
Dewpoint54.1 °F64.4 °F (1:46 am)46 °F (4:53 pm)
Humidity75.6 %100 % (1:46 am)45 % (4:53 pm)
Barometer29.75 in29.88 in (11:53 pm)29.69 in (5:53 am)
Wind Speed9.5 mph18.4 mph (12:53 pm)
Wind Gust24.2 mph (12:53 pm)
Weather ElementAverage
Visibility9.3 mi
Wind DirectionWNW (293.1 °)

Weather ElementTotal
Precipitation0.04 in
Heating Degree Days2.5 (Base 65)
Growing Degree Days12.5 (Base 50)
Averaged from 29 records on September 21, 2013
WEATHER CONDITIONS BREAKOUT
WIND DIRECTION BREAKOUT
WEATHER BY HOUR - SEPTEMBER 21, 2013
[ °C ]   °F
Local TimeTemperatureDewpointHumidityBarometerVisibilityWind DirectionWind SpeedGust SpeedPrecipitationEventsConditions
1:46 AM64.4 °F64.4 °F100 %29.74 in5.0 miWSW (250°)4.6 mph0.02 inRainLight Rain
1:53 AM64.9 °F64.0 °F97 %29.72 in5.0 miWSW (250°)3.5 mph0.02 inRainLight Rain
2:01 AM64.4 °F64.4 °F100 %29.73 in6.0 miSW (230°)3.5 mph0.00 inOvercast
2:53 AM66.0 °F64.0 °F93 %29.71 in7.0 miWNW (290°)9.2 mph0.00 inOvercast
3:53 AM64.0 °F60.1 °F87 %29.70 in10.0 miWNW (300°)5.8 mphOvercast
4:53 AM63.0 °F59.0 °F87 %29.70 in10.0 miWNW (300°)9.2 mphOvercast
5:53 AM61.0 °F57.9 °F90 %29.69 in10.0 miWNW (300°)8.1 mphMostly Cloudy
6:53 AM60.1 °F57.0 °F90 %29.69 in10.0 miWNW (290°)5.8 mphClear
7:53 AM59.0 °F57.0 °F93 %29.70 in8.0 miWest (280°)4.6 mphClear
8:42 AM60.8 °F57.2 °F88 %29.72 in10.0 miWNW (300°)11.5 mphMostly Cloudy
8:53 AM60.1 °F57.0 °F90 %29.71 in10.0 miWNW (300°)9.2 mphMostly Cloudy
9:22 AM60.8 °F57.2 °F88 %29.72 in10.0 miWNW (300°)10.4 mphMostly Cloudy
9:53 AM60.1 °F55.9 °F86 %29.73 in10.0 miNW (310°)9.2 mphOvercast
10:53 AM63.0 °F55.9 °F78 %29.73 in10.0 miWNW (300°)11.5 mphOvercast
11:04 AM62.6 °F55.4 °F77 %29.73 in10.0 miWNW (300°)12.7 mph19.6 mphOvercast
11:44 AM62.6 °F55.4 °F77 %29.74 in10.0 miNW (320°)9.2 mph20.7 mphMostly Cloudy
11:53 AM64.9 °F55.9 °F73 %29.73 in10.0 miNNW (340°)13.8 mph19.6 mphMostly Cloudy
12:53 PM64.9 °F53.1 °F65 %29.74 in10.0 miNNW (340°)18.4 mph24.2 mph0.00 inScattered Clouds
1:53 PM68.0 °F52.0 °F56 %29.74 in10.0 miNNW (340°)13.8 mph21.9 mphPartly Cloudy
2:53 PM68.0 °F48.9 °F50 %29.74 in10.0 miNW (310°)10.4 mph21.9 mphClear
3:53 PM68.0 °F48.0 °F49 %29.75 in10.0 miNW (320°)15.0 mph21.9 mphClear
4:53 PM68.0 °F46.0 °F45 %29.75 in10.0 miNW (310°)11.5 mphClear
5:53 PM64.0 °F46.0 °F52 %29.78 in10.0 miNW (310°)11.5 mph20.7 mphMostly Cloudy
6:53 PM63.0 °F46.0 °F54 %29.80 in10.0 miWNW (300°)9.2 mphOvercast
7:53 PM61.0 °F46.0 °F58 %29.81 in10.0 miNW (310°)9.2 mphOvercast
8:53 PM57.9 °F46.0 °F65 %29.83 in10.0 miNW (320°)9.2 mphClear
9:53 PM57.0 °F46.9 °F69 %29.85 in10.0 miNW (320°)6.9 mphOvercast
10:53 PM57.0 °F46.9 °F69 %29.86 in10.0 miNorth (350°)9.2 mphOvercast
11:53 PM57.0 °F46.0 °F67 %29.88 in10.0 miNorth (10°)8.1 mphOvercast
Hourly data recorded from KARB, located miles away from Ann Arbor, Michigan







STORIES FROM OUR PARTNERS